{"data":{"norad_id":53688,"intl_designator":"2022-105AS","name":"STARLINK-4571","alt_names":[],"object_type":"PAYLOAD","status":"ACTIVE","operator":null,"country":"US","launch_date":"2022-08-31","launch_site_code":"AFWTR","launch_vehicle":null,"mission":null,"orbit_class":"UNKNOWN","rcs_meters":null,"size_class":null,"mass_kg":null,"dimensions":null,"purposes":["comms"],"wikipedia_slug":null,"has_3d_model":false,"image_url":null,"decayed_at":null,"tle_current":{"epoch":"2026-05-25T03:04:57.343008Z","epoch_age_seconds":74686,"freshness":"FRESH","line1":"1 53688U 22105AS  26145.12844147  .00031340  00000+0  21758-2 0  9994","line2":"2 53688  97.4516  25.0576 0002777  96.7643 263.3900 15.05489777204739","mean_motion":15.05489777,"eccentricity":0.0002777,"inclination_deg":97.4516,"raan_deg":25.0576,"arg_perigee_deg":96.7643,"mean_anomaly_deg":263.39,"bstar":0.0021758,"rev_number":20473,"period_min":95.649935456187,"perigee_km":548.07872140859,"apogee_km":551.92661017897,"semimajor_km":6928.1396657938,"source":"CELESTRAK","updated_at":"2026-05-25T13:38:17.530174Z"}}}